TimeMST,TemperatureF,Dew PointF,Humidity,Sea Level PressureIn,VisibilityMPH,Wind Direction,Wind SpeedMPH,Gust SpeedMPH,PrecipitationIn,Events,Conditions,WindDirDegrees,DateUTC
12:15 AM,19.4,8.6,63,30.02,10.0,NNE,6.9,-,N/A,,Clear,30,2014-02-23 07:15:00
12:35 AM,19.4,8.6,63,30.03,10.0,NNE,3.5,-,N/A,,Clear,20,2014-02-23 07:35:00
12:55 AM,19.4,10.4,68,30.03,10.0,NE,6.9,-,N/A,,Clear,40,2014-02-23 07:55:00
1:15 AM,17.6,10.4,73,30.04,10.0,NE,3.5,-,N/A,,Clear,40,2014-02-23 08:15:00
1:35 AM,17.6,8.6,68,30.04,10.0,NE,4.6,-,N/A,,Clear,40,2014-02-23 08:35:00
1:55 AM,17.6,6.8,63,30.05,10.0,NNE,5.8,-,N/A,,Clear,30,2014-02-23 08:55:00
2:15 AM,19.4,8.6,63,30.05,10.0,East,4.6,-,N/A,,Clear,90,2014-02-23 09:15:00
2:35 AM,21.2,8.6,58,30.05,10.0,ESE,5.8,-,N/A,,Clear,120,2014-02-23 09:35:00
2:55 AM,19.4,8.6,63,30.05,10.0,Calm,Calm,-,N/A,,Clear,0,2014-02-23 09:55:00
3:15 AM,17.6,3.2,53,30.05,10.0,NE,8.1,-,N/A,,Clear,50,2014-02-23 10:15:00
3:35 AM,17.6,6.8,63,30.06,10.0,North,8.1,-,N/A,,Clear,350,2014-02-23 10:35:00
3:55 AM,19.4,10.4,68,30.07,10.0,North,3.5,-,N/A,,Clear,360,2014-02-23 10:55:00
4:15 AM,17.6,8.6,68,30.08,10.0,NE,4.6,-,N/A,,Partly Cloudy,40,2014-02-23 11:15:00
4:35 AM,15.8,3.2,58,30.09,10.0,North,4.6,-,N/A,,Partly Cloudy,10,2014-02-23 11:35:00
4:55 AM,17.6,6.8,63,30.09,10.0,Calm,Calm,-,N/A,,Partly Cloudy,0,2014-02-23 11:55:00
5:15 AM,15.8,5.0,62,30.10,10.0,North,5.8,-,N/A,,Clear,350,2014-02-23 12:15:00
5:35 AM,15.8,-0.4,49,30.10,10.0,NNW,5.8,-,N/A,,Clear,340,2014-02-23 12:35:00
5:55 AM,15.8,8.6,73,30.11,10.0,North,5.8,-,N/A,,Clear,360,2014-02-23 12:55:00
6:15 AM,14.0,3.2,62,30.11,10.0,North,5.8,-,N/A,,Clear,350,2014-02-23 13:15:00
6:35 AM,12.2,-2.2,53,30.12,10.0,North,6.9,-,N/A,,Clear,10,2014-02-23 13:35:00
6:55 AM,12.2,3.2,67,30.13,10.0,NNE,5.8,-,N/A,,Clear,20,2014-02-23 13:55:00
7:15 AM,12.2,6.8,79,30.14,10.0,ENE,3.5,-,N/A,,Clear,60,2014-02-23 14:15:00
7:35 AM,10.4,-0.4,62,30.15,10.0,ESE,3.5,-,N/A,,Clear,120,2014-02-23 14:35:00
7:55 AM,12.2,6.8,79,30.17,10.0,Calm,Calm,-,N/A,,Clear,0,2014-02-23 14:55:00
8:15 AM,14.0,5.0,67,30.18,10.0,Calm,Calm,-,N/A,,Clear,0,2014-02-23 15:15:00
8:35 AM,12.2,1.4,62,30.18,10.0,ENE,3.5,-,N/A,,Clear,70,2014-02-23 15:35:00
8:55 AM,15.8,12.2,86,30.19,10.0,ENE,5.8,-,N/A,,Clear,60,2014-02-23 15:55:00
9:15 AM,15.8,-2.2,45,30.19,10.0,East,5.8,-,N/A,,Clear,80,2014-02-23 16:15:00
9:35 AM,14.0,-0.4,53,30.20,10.0,East,5.8,-,N/A,,Clear,100,2014-02-23 16:35:00
9:55 AM,17.6,12.2,79,30.20,10.0,East,5.8,-,N/A,,Clear,100,2014-02-23 16:55:00
10:15 AM,17.6,10.4,73,30.20,10.0,East,5.8,-,N/A,,Clear,80,2014-02-23 17:15:00
10:35 AM,19.4,5.0,54,30.20,10.0,East,4.6,-,N/A,,Clear,90,2014-02-23 17:35:00
10:55 AM,21.2,5.0,50,30.20,10.0,East,4.6,-,N/A,,Clear,90,2014-02-23 17:55:00
11:15 AM,21.2,8.6,58,30.20,10.0,ESE,5.8,-,N/A,,Clear,110,2014-02-23 18:15:00
11:35 AM,21.2,10.4,63,30.20,10.0,SE,3.5,-,N/A,,Clear,140,2014-02-23 18:35:00
11:55 AM,23.0,8.6,54,30.19,10.0,ESE,3.5,-,N/A,,Clear,110,2014-02-23 18:55:00
12:15 PM,24.8,10.4,54,30.19,10.0,East,5.8,-,N/A,,Clear,90,2014-02-23 19:15:00
12:35 PM,26.6,12.2,55,30.18,10.0,East,6.9,-,N/A,,Clear,80,2014-02-23 19:35:00
12:55 PM,26.6,12.2,55,30.17,10.0,East,6.9,-,N/A,,Clear,90,2014-02-23 19:55:00
1:15 PM,26.6,15.8,64,30.16,10.0,East,6.9,-,N/A,,Clear,90,2014-02-23 20:15:00
1:35 PM,28.4,14.0,55,30.15,10.0,East,5.8,-,N/A,,Clear,90,2014-02-23 20:35:00
1:55 PM,28.4,14.0,55,30.15,10.0,East,6.9,-,N/A,,Clear,80,2014-02-23 20:55:00
2:15 PM,30.2,15.8,55,30.14,10.0,East,5.8,-,N/A,,Clear,80,2014-02-23 21:15:00
2:35 PM,30.2,15.8,55,30.13,10.0,ENE,9.2,-,N/A,,Clear,60,2014-02-23 21:35:00
2:55 PM,33.8,14.0,44,30.13,10.0,ENE,4.6,-,N/A,,Clear,60,2014-02-23 21:55:00
3:15 PM,30.2,14.0,51,30.12,10.0,ENE,6.9,-,N/A,,Clear,70,2014-02-23 22:15:00
3:35 PM,33.8,15.8,48,30.12,10.0,East,5.8,-,N/A,,Clear,90,2014-02-23 22:35:00
3:55 PM,33.8,17.6,52,30.12,10.0,ENE,6.9,-,N/A,,Clear,70,2014-02-23 22:55:00
4:15 PM,32.0,17.6,55,30.11,10.0,ENE,6.9,-,N/A,,Clear,60,2014-02-23 23:15:00
4:35 PM,32.0,15.8,51,30.11,10.0,ENE,5.8,-,N/A,,Clear,60,2014-02-23 23:35:00
4:55 PM,33.8,12.2,41,30.11,10.0,North,4.6,-,N/A,,Clear,360,2014-02-23 23:55:00
5:15 PM,30.2,15.8,55,30.11,10.0,ENE,4.6,-,N/A,,Clear,70,2014-02-24 00:15:00
5:35 PM,30.2,15.8,55,30.12,9.0,Calm,Calm,-,N/A,,Clear,0,2014-02-24 00:35:00
5:55 PM,30.2,15.8,55,30.12,10.0,NNW,4.6,-,N/A,,Clear,340,2014-02-24 00:55:00
6:15 PM,28.4,15.8,59,30.12,10.0,North,4.6,-,N/A,,Clear,350,2014-02-24 01:15:00
6:35 PM,26.6,12.2,55,30.13,10.0,NNW,6.9,-,N/A,,Clear,340,2014-02-24 01:35:00
6:55 PM,26.6,10.4,51,30.14,10.0,North,5.8,-,N/A,,Clear,360,2014-02-24 01:55:00
7:15 PM,24.8,10.4,54,30.14,10.0,Calm,Calm,-,N/A,,Clear,0,2014-02-24 02:15:00
7:35 PM,21.2,12.2,68,30.15,10.0,South,3.5,-,N/A,,Clear,180,2014-02-24 02:35:00
7:55 PM,21.2,12.2,68,30.14,10.0,Calm,Calm,-,N/A,,Clear,0,2014-02-24 02:55:00
8:15 PM,21.2,12.2,68,30.14,10.0,Calm,Calm,-,N/A,,Clear,0,2014-02-24 03:15:00
8:35 PM,21.2,12.2,68,30.15,10.0,Calm,Calm,-,N/A,,Clear,0,2014-02-24 03:35:00
8:55 PM,19.4,12.2,74,30.15,10.0,Calm,Calm,-,N/A,,Clear,0,2014-02-24 03:55:00
9:15 PM,15.8,3.2,58,30.16,10.0,Calm,Calm,-,N/A,,Clear,0,2014-02-24 04:15:00
9:35 PM,15.8,12.2,86,30.16,10.0,Calm,Calm,-,N/A,,Clear,0,2014-02-24 04:35:00
9:55 PM,17.6,15.8,93,30.16,10.0,North,4.6,-,N/A,,Clear,10,2014-02-24 04:55:00
10:15 PM,14.0,8.6,79,30.16,10.0,Calm,Calm,-,N/A,,Clear,0,2014-02-24 05:15:00
10:35 PM,12.2,6.8,79,30.16,10.0,NE,4.6,-,N/A,,Clear,40,2014-02-24 05:35:00
10:55 PM,12.2,3.2,67,30.17,10.0,NE,5.8,-,N/A,,Clear,50,2014-02-24 05:55:00
11:15 PM,14.0,12.2,93,30.17,10.0,Calm,Calm,-,N/A,,Clear,0,2014-02-24 06:15:00
11:35 PM,12.2,5.0,73,30.16,10.0,NE,3.5,-,N/A,,Clear,40,2014-02-24 06:35:00
11:55 PM,12.2,-0.4,57,30.16,10.0,NNE,3.5,-,N/A,,Clear,20,2014-02-24 06:55:00